Content
SEND FEEDBACK

Daily
Averages
Monthly
Summary
Jamaica

MONTEGO BAY, JAMAICA


Home > Caribbean > Jamaica
Elevation: 10 feet     Latitude: 18 30N     Longitude: 077 55W

WEATHER
 
SELECT A DAY
Number of Records: 172,673;   Date Range: 7/1/96 - 11/22/14
 
SHARE

PRINT THIS DATA

[ ← Previous Day ]
WEATHER ALMANAC - FEBRUARY 16, 2014
[ Next Day → ]
[ °C ]   °F
Weather ElementAverageHighLow
Temperature79.1 °F84.2 °F (2:00 pm)75 °F (4:00 am)
Dewpoint74.2 °F77 °F (10:00 am)69.8 °F (1:00 am)
Humidity84.3 %94 % (3:00 am)71 % (4:00 pm)
Barometer30.02 in30.08 in (10:00 am)29.98 in (3:00 am)
Wind Speed5.9 mph9.2 mph (3:00 pm)
Weather ElementAverage
Visibility8.1 mi
Wind DirectionE (95.3 °)

Weather ElementTotal
Precipitation---
Cooling Degree Days14.6 (Base 65)
Growing Degree Days29.6 (Base 50)
Averaged from 30 records on February 16, 2014
WEATHER CONDITIONS BREAKOUT
WIND DIRECTION BREAKOUT
WEATHER BY HOUR - FEBRUARY 16, 2014
[ °C ]   °F
Local TimeTemperatureDewpointHumidityBarometerVisibilityWind DirectionWind SpeedGust SpeedPrecipitationEventsConditions
1:00 AM75.2 °F69.8 °F83 %30.04 in6.2 miSSE (160°)3.5 mphPartly Cloudy
2:00 AM75.2 °F71.6 °F89 %30.01 in6.2 miEast (80°)3.5 mphPartly Cloudy
3:00 AM75.2 °F73.4 °F94 %29.98 in6.2 miSSE (160°)3.5 mphPartly Cloudy
4:00 AM75.0 °F72.0 °F89 %30.00 in12.0 miSSE (160°)3.5 mphHaze
4:00 AM75.2 °F71.6 °F89 %29.98 in6.2 miSSE (160°)3.5 mphPartly Cloudy
5:00 AM75.2 °F71.6 °F89 %30.01 in6.2 miSSE (150°)3.5 mphPartly Cloudy
6:00 AM75.2 °F71.6 °F89 %30.01 in6.2 miSSE (150°)3.5 mphPartly Cloudy
7:00 AM75.2 °F73.4 °F94 %30.01 in6.2 miSE (140°)4.6 mphPartly Cloudy
7:00 AM75.0 °F73.0 °F91 %30.03 in12.0 miSE (140°)4.6 mphHaze
8:00 AM78.8 °F75.2 °F89 %30.04 in6.2 miVariable1.2 mphPartly Cloudy
9:00 AM78.8 °F75.2 °F89 %30.04 in6.2 miWNW (300°)3.5 mphPartly Cloudy
10:00 AM81.0 °F77.0 °F83 %30.08 in15.0 miNorth3.5 mphHaze
10:00 AM80.6 °F77.0 °F89 %30.06 in6.2 miNorth (360°)3.5 mphPartly Cloudy
11:00 AM82.4 °F77.0 °F84 %30.06 in6.2 miNNE (20°)5.8 mphPartly Cloudy
12:00 PM82.4 °F75.2 °F79 %30.04 in6.2 miNNE (30°)6.9 mphPartly Cloudy
1:00 PM82.4 °F77.0 °F84 %30.01 in6.2 miNNE (20°)6.9 mphPartly Cloudy
1:00 PM83.0 °F76.0 °F74 %30.03 in15.0 miNNE (20°)6.9 mphHaze
2:00 PM84.2 °F77.0 °F79 %29.98 in6.2 miNNE (30°)8.1 mphPartly Cloudy
3:00 PM82.4 °F77.0 °F84 %29.98 in6.2 miNE (40°)9.2 mphMostly Cloudy
4:00 PM83.0 °F75.0 °F71 %29.99 in15.0 miENE (60°)9.2 mphHaze
4:00 PM82.4 °F75.2 °F79 %29.98 in6.2 miENE (60°)9.2 mphPartly Cloudy
5:00 PM82.4 °F75.2 °F79 %29.98 in6.2 miENE (60°)9.2 mphPartly Cloudy
6:00 PM80.6 °F75.2 °F84 %29.98 in6.2 miENE (60°)6.9 mphPartly Cloudy
7:00 PM78.8 °F73.4 °F83 %30.01 in6.2 miENE (60°)8.1 mphPartly Cloudy
7:00 PM79.0 °F74.0 °F79 %30.01 in15.0 miENE (60°)8.1 mphHaze
8:00 PM78.8 °F73.4 °F83 %30.01 in6.2 miEast (90°)4.6 mphMostly Cloudy
9:00 PM78.8 °F73.4 °F83 %30.04 in6.2 miEast (80°)6.9 mphMostly Cloudy
10:00 PM79.0 °F74.0 °F81 %30.05 in15.0 miENE (70°)9.2 mphHaze
10:00 PM78.8 °F73.4 °F83 %30.04 in6.2 miENE (70°)9.2 mphMostly Cloudy
11:00 PM78.8 °F73.4 °F83 %30.04 in6.2 miENE (70°)5.8 mphScattered Clouds
Hourly data recorded from MKJS, located miles away from Montego Bay, Jamaica







STORIES FROM OUR PARTNERS